Tracking 25953 objects as of 16-Aug-2022
HD Live streaming from Space Station
objects crossing your sky now

TRSI-3

Track TRSI-3 now!
10-day predictions


NORAD ID: 52418
Int'l Code: 2022-047AA
Perigee: 525.5 km
Apogee: 537.3 km
Inclination: 97.4 °
Period: 95.1 minutes
Semi major axis: 6902 km
RCS: Unknown
Launch date: May 2, 2022
Source: United States (US)
Launch site: Rocket Lab Launch Complex (RLLC)
aabbcc
Your satellite tracking list
Your tracking list is empty




NASA's NSSDC Master Catalog

Two Line Element Set (TLE):
1 52418U 22047AA  22227.19069257  .00005384  00000-0  30054-3 0  9994
2 52418  97.4474 310.7422 0008592 346.2295  13.8701 15.13925109 17230
Source of the keplerian elements: AFSPC